パンスターズ彗星

C/2017 F2 ( PanSTARRS )

English version
Home page
Updated on October 8, 2017

---------------------------------------------------------------------

・ プロフィール

発見日 2017年3月31日
発見光度 21.2等
発見者 Pan-STARRS 1 telescope (Haleakala)

・ 写真集

・ 軌道要素

Epoch 2017 Nov. 23.0 TT = JDT 2458080.5
T 2017 Nov. 26.04504 TT                                 MPCW
q   6.9274778            (2000.0)            P               Q
z  -0.0006518      Peri.  134.88438     -0.87733978     -0.22804011
 +/-0.0000281      Node    38.67588     -0.22088109     -0.58921302
e   1.0045150      Incl.   42.50468     +0.42601227     -0.77512949
From 40 observations 2017 Mar. 31-July 19, mean residual 0".5.

・ 光度変化

        m1 = 7.5 + 5 logΔ + 10.0 log r

---------------------------------------------------------------------

軌道要素はM.P.E.C. 2017-T14に掲載されたものです。
光度グラフはComet for Windowsで作成したものです。

---------------------------------------------------------------------

Copyright(C) Seiichi Yoshida (comet@aerith.net). All rights reserved.